User: anonymous   Login
Location: Fisheating Creek Campgrounds
(26.9333°N, 81.3167°W)
Time: 13:20:17
(UTC-04:00)
Language:

Cosmos 2221 Rocket - Orbit

View from above orbital plane
View from above orbital plane
View from above satellite
View from above satellite

Ground track
Ground track

The orbit data is extracted from the following two-line orbital elements,

1 22237U 92080B   15086.18801848  .00000475  00000-0  62483-4 0  9996
2 22237 082.5135 153.9103 0019362 348.2295 065.8412 14.78093493203333
Epoch (UTC): 27 March 2015 04:30:44
Eccentricity: 0.0019362
inclination: 82.5135°
perigee height: 622 km
apogee height: 649 km
right ascension of ascending node: 153.9103°
argument of perigee: 348.2295°
revolutions per day: 14.78093493
mean anomaly at epoch: 65.8412°
orbit number at epoch: 20333

The dashed part of the orbit path shows where the satellite is in the earth's shadow,  

DLR